Location: Newark
(51.5114°N, 0.0848°W)
Time: 18:11:17
(UTC+00:00)

N. Korean satellite - Pass Details

Date: 28 October 2019
Orbit: 456 x 506 km, 97.2° (Epoch: 20 November)

Event Time Altitude Azimuth Distance (km) Brightness Sun altitude
Rises 18:18:31 0° 218° (SW) 2,485 10.8 -15.6°
Reaches altitude 10° 18:21:57 10° 255° (WSW) 1,629 10.5 -16.2°
Maximum altitude 18:23:00 11° 273° (W) 1,568 10.5 -16.3°
Drops below altitude 10° 18:24:04 10° 291° (WNW) 1,641 10.3 -16.5°
Sets 18:27:35 0° 328° (NNW) 2,541 10.7 -17.0°
